Stations météo

réclame
Mon MeteoGroup
Cagliari/Elmas, Italie (16560): Température de l'air & dewpoint: 20.09.2018 17:00:00 - 26.09.2018 17:00:00 (CEST)Cagliari/Elmas, Italie (16560): Vitesse du vent: 20.09.2018 17:00:00 - 26.09.2018 17:00:00 (CEST)Cagliari/Elmas, Italie (16560): Direction du vent: 20.09.2018 17:00:00 - 26.09.2018 17:00:00 (CEST)Cagliari/Elmas, Italie (16560): reduced air pressure: 20.09.2018 17:00:00 - 26.09.2018 17:00:00 (CEST)Cagliari/Elmas, Italie (16560): visibility: 20.09.2018 17:00:00 - 26.09.2018 17:00:00 (CEST)Cagliari/Elmas, Italie (16560): Quantités de précipitations: 20.09.2018 17:00:00 - 26.09.2018 17:00:00 (CEST)
Date & Time tt [°C] td [°C] ff [km/h] ff [knt] dd ppp [hPa] vv [km] rr [mm]
26.09.2018 17:00:00 - - - - - - - -
26.09.2018 16:00:00 25,0 11,0 21 11 E - 10 -
26.09.2018 15:00:00 26,0 12,0 18 10 ESE - 10 -
26.09.2018 14:00:00 25,4 12,5 24 13 E 1028,0 10 -
26.09.2018 13:00:00 25,0 14,0 9 5 NNW - 10 -
26.09.2018 12:00:00 24,0 13,0 4 2 - - 10 -
26.09.2018 11:00:00 22,9 13,4 11 6 W 1028,0 10 0,0
26.09.2018 10:00:00 22,0 13,0 11 6 WSW - 10 -
26.09.2018 09:00:00 19,0 12,0 9 5 W - 10 -
26.09.2018 08:00:00 17,8 11,9 11 6 WNW 1026,4 10 -
26.09.2018 07:00:00 18,0 12,0 16 9 WNW - 10 -
26.09.2018 06:00:00 17,0 13,0 13 7 W - 10 -
26.09.2018 05:00:00 18,4 12,5 11 6 WSW 1025,2 10 0,0
26.09.2018 04:00:00 19,0 13,0 11 6 W - 10 -
26.09.2018 03:00:00 20,0 13,0 16 9 W - 10 -
26.09.2018 02:00:00 19,7 14,4 13 7 WSW 1025,0 10 -
26.09.2018 01:00:00 20,0 15,0 11 6 W - 10 -
26.09.2018 00:00:00 20,0 16,0 11 6 W - 10 -
25.09.2018 23:00:00 20,5 17,0 8 4 W 1024,7 10 0,0
25.09.2018 22:00:00 21,0 17,0 9 5 W - 10 -
25.09.2018 21:00:00 22,0 16,0 11 6 ESE - 10 -
25.09.2018 20:00:00 22,8 16,5 15 8 NE 1022,9 10 -
25.09.2018 19:00:00 23,0 18,0 15 8 ENE - 10 -
25.09.2018 18:00:00 23,0 15,0 24 13 ENE - 10 -
25.09.2018 17:00:00 22,7 20,3 9 5 W 1021,4 10 0,0
25.09.2018 16:00:00 22,0 21,0 8 4 W - 10 -
25.09.2018 15:00:00 22,0 20,0 8 4 ESE - 10 -
25.09.2018 14:00:00 24,2 18,2 5 3 N 1021,3 10 -
25.09.2018 13:00:00 27,0 17,0 8 4 W - 10 -
25.09.2018 12:00:00 25,0 15,0 11 6 NNW - 10 -
25.09.2018 11:00:00 23,2 16,7 11 6 NW 1020,8 10 0,0
25.09.2018 10:00:00 19,0 16,0 11 6 WNW - 10 -
25.09.2018 09:00:00 18,0 15,0 9 5 NW - 10 -
25.09.2018 08:00:00 16,6 14,3 11 6 NW 1019,7 20 -
25.09.2018 07:00:00 17,0 15,0 8 4 NW - 10 -
25.09.2018 06:00:00 18,0 15,0 13 7 NNE - 10 -
25.09.2018 05:00:00 17,3 13,4 9 5 N 1019,1 10 0,0
25.09.2018 04:00:00 17,0 13,0 8 4 NNW - 10 -
25.09.2018 03:00:00 17,0 13,0 9 5 NNW - 10 -
25.09.2018 02:00:00 17,8 13,3 9 5 NNW 1019,7 10 -
25.09.2018 01:00:00 19,0 14,0 13 7 WNW - 10 -
25.09.2018 00:00:00 19,0 14,0 13 7 NW - 10 -
24.09.2018 23:00:00 20,0 13,9 18 10 NNW 1018,9 10 0,0
24.09.2018 22:00:00 22,0 14,0 26 14 NNW - 10 -
24.09.2018 21:00:00 22,0 14,0 28 15 NNW - 10 -
24.09.2018 20:00:00 23,4 12,9 22 12 NW 1017,5 10 -
24.09.2018 19:00:00 26,0 11,0 28 15 NW - 10 -
24.09.2018 18:00:00 27,0 14,0 31 17 NNW - 10 -
24.09.2018 17:00:00 27,6 16,0 39 21 NW 1016,5 10 0,0
24.09.2018 16:00:00 29,0 15,0 37 20 NW - 10 -
24.09.2018 15:00:00 29,0 16,0 41 22 NW - 10 -
24.09.2018 14:00:00 29,1 19,1 39 21 NW 1016,5 10 -
24.09.2018 13:00:00 29,0 19,0 31 17 NW - 10 -
24.09.2018 12:00:00 28,0 19,0 35 19 NW - 10 -
24.09.2018 11:00:00 27,7 18,7 31 17 NNW 1017,1 10 0,0
24.09.2018 10:00:00 27,0 20,0 21 11 NW - 10 -
24.09.2018 09:00:00 24,0 21,0 13 7 NW - 10 -
24.09.2018 08:00:00 21,7 19,7 8 4 N 1016,8 20 -
24.09.2018 07:00:00 21,0 20,0 15 8 NNW - 10 -
24.09.2018 06:00:00 - - - - - - - -
24.09.2018 05:00:00 21,5 20,1 15 8 NW 1017,2 10 0,0
24.09.2018 04:00:00 21,0 20,0 15 8 NNW - 10 -
24.09.2018 03:00:00 22,0 20,0 21 11 NNW - 10 -
24.09.2018 02:00:00 21,9 19,6 16 9 NNW 1018,6 10 -
24.09.2018 01:00:00 22,0 19,0 13 7 NW - 10 -
24.09.2018 00:00:00 22,0 19,0 16 9 NW - 10 -
23.09.2018 23:00:00 22,0 18,9 13 7 NNW 1019,2 10 0,0
23.09.2018 22:00:00 23,0 18,0 11 6 NNW - 10 -
23.09.2018 21:00:00 24,0 18,0 13 7 NW - 10 -
23.09.2018 20:00:00 25,1 17,9 16 9 NNW 1018,5 10 -
23.09.2018 19:00:00 28,0 16,0 13 7 NW - 10 -
23.09.2018 18:00:00 29,0 15,0 18 10 WNW - 10 -
23.09.2018 17:00:00 30,2 15,3 16 9 WNW 1018,1 10 0,0
23.09.2018 16:00:00 30,0 17,0 9 5 - - 10 -
23.09.2018 15:00:00 29,0 19,0 9 5 S - 10 -
23.09.2018 14:00:00 28,4 18,9 15 8 S 1019,7 10 -
23.09.2018 13:00:00 29,0 19,0 4 2 - - 10 -
23.09.2018 12:00:00 27,0 19,0 5 3 N - 10 -
23.09.2018 11:00:00 25,3 17,7 8 4 W 1020,9 10 0,0
23.09.2018 10:00:00 23,0 15,0 8 4 NW - 10 -
23.09.2018 09:00:00 20,0 14,0 9 5 NW - 10 -
23.09.2018 08:00:00 18,6 15,0 9 5 NW 1020,0 10 -
23.09.2018 07:00:00 18,0 15,0 11 6 NW - 10 -
23.09.2018 06:00:00 19,0 15,0 11 6 NW - 10 -
23.09.2018 05:00:00 19,6 13,8 15 8 N 1019,7 10 0,0
23.09.2018 04:00:00 20,0 15,0 16 9 N - 10 -
23.09.2018 03:00:00 18,0 15,0 9 5 NW - 10 -
23.09.2018 02:00:00 18,7 15,4 13 7 NW 1020,4 10 -
23.09.2018 01:00:00 21,0 15,0 16 9 N - 10 -
23.09.2018 00:00:00 21,0 15,0 22 12 NNW - 10 -
22.09.2018 23:00:00 20,7 15,3 15 8 N 1020,5 10 0,0
22.09.2018 22:00:00 22,0 15,0 16 9 N - 10 -
22.09.2018 21:00:00 24,0 12,0 26 14 NW - 10 -
22.09.2018 20:00:00 24,7 11,1 21 11 NNW 1019,1 10 -
22.09.2018 19:00:00 26,0 11,0 28 15 NNW - 10 -
22.09.2018 18:00:00 28,0 17,0 31 17 NNW - 10 -
22.09.2018 17:00:00 28,7 15,0 28 15 NW 1018,1 10 0,0
22.09.2018 16:00:00 30,0 16,0 31 17 NNW - 10 -
22.09.2018 15:00:00 30,0 16,0 29 16 NNW - 10 -
22.09.2018 14:00:00 29,8 17,6 26 14 NNW 1018,5 10 -
22.09.2018 13:00:00 29,0 20,0 24 13 NNW - 10 -
22.09.2018 12:00:00 28,0 20,0 21 11 NNW - 10 -
22.09.2018 11:00:00 26,7 19,7 24 13 NNW 1019,2 10 0,0
22.09.2018 10:00:00 24,0 20,0 18 10 N - 10 -
22.09.2018 09:00:00 22,0 18,0 11 6 N - 10 -
22.09.2018 08:00:00 20,3 18,6 15 8 NNW 1018,0 10 -
22.09.2018 07:00:00 21,0 19,0 21 11 N - 10 -
22.09.2018 06:00:00 21,0 19,0 13 7 N - 10 -
22.09.2018 05:00:00 20,1 18,8 11 6 N 1017,1 10 0,0
22.09.2018 04:00:00 21,0 19,0 16 9 N - 10 -
22.09.2018 03:00:00 22,0 19,0 15 8 N - 10 -
22.09.2018 02:00:00 21,5 19,4 11 6 N 1017,1 10 -
22.09.2018 01:00:00 22,0 20,0 13 7 N - 10 -
22.09.2018 00:00:00 21,0 20,0 9 5 N - 10 -
21.09.2018 23:00:00 22,3 20,1 13 7 NNW 1016,6 10 0,0
21.09.2018 22:00:00 24,0 20,0 15 8 NNW - 10 -
21.09.2018 21:00:00 24,0 19,0 11 6 NNW - 10 -
21.09.2018 20:00:00 25,4 17,9 16 9 NW 1014,2 10 -
21.09.2018 19:00:00 26,0 20,0 9 5 WNW - 10 -
21.09.2018 18:00:00 27,0 17,0 11 6 NE - 10 -
21.09.2018 17:00:00 28,3 18,6 11 6 NW 1013,5 10 0,0
21.09.2018 16:00:00 27,0 19,0 11 6 N - 10 -
21.09.2018 15:00:00 27,0 19,0 9 5 NNE - 10 -
21.09.2018 14:00:00 25,6 19,3 13 7 NW 1013,9 10 -
21.09.2018 13:00:00 26,0 19,0 15 8 NNW - 10 -
21.09.2018 12:00:00 24,0 19,0 18 10 NNW - 10 -
21.09.2018 11:00:00 24,2 19,0 16 9 NNW 1013,5 10 0,0
21.09.2018 10:00:00 22,0 19,0 15 8 NNW - 10 -
21.09.2018 09:00:00 22,0 19,0 13 7 NNW - 10 -
21.09.2018 08:00:00 21,4 18,7 13 7 NNW 1012,3 10 -
21.09.2018 07:00:00 21,0 19,0 15 8 NNW - 10 -
21.09.2018 06:00:00 21,0 19,0 15 8 NNW - 10 -
21.09.2018 05:00:00 20,4 18,8 15 8 NNW 1011,8 10 0,0
21.09.2018 04:00:00 20,0 19,0 13 7 N - 10 -
21.09.2018 03:00:00 20,0 18,0 11 6 N - 10 -
21.09.2018 02:00:00 20,3 18,5 13 7 N 1013,0 10 -
21.09.2018 01:00:00 21,0 19,0 11 6 NNW - 10 -
21.09.2018 00:00:00 22,0 19,0 11 6 NW - 10 -
20.09.2018 23:00:00 21,7 19,9 9 5 NW 1013,9 10 0,0
20.09.2018 22:00:00 22,0 21,0 11 6 N - 10 -
20.09.2018 21:00:00 23,0 21,0 13 7 WNW - 10 -
20.09.2018 20:00:00 23,1 20,3 18 10 NW 1013,2 10 -
20.09.2018 19:00:00 24,0 20,0 26 14 NNW - 3,0 -
20.09.2018 18:00:00 25,0 21,0 15 8 NW - 10 -
20.09.2018 17:00:00 24,7 21,7 18 10 N 1013,7 10 0,0

tt = Température de l'air
td = dewpoint
ff = Vitesse du vent
dd = Direction du vent
ppp = reduced air pressure
vv = visibility
rr = Quantités de précipitations

stations d'obs. à proximité